Weather in Filippsola

Russia / Mari El Republic     56°17′02″N   48°30′22″E
temp.,
°C
wind,
m/s
gust,
m/s
humid.,
%
clouds,
%
prec.,
mm/h
press.,
hPa
HPBL,
m
25 february, thu
thu2500:00−25wsw1196100 0.0 103520
03:00−25s229783 0.0 103321
06:00−23s2597100 0.0 1031168
09:00−20sse4891100 0.0 1028272
12:00−17sse5989100 0.0 1024422
15:00−16sse51194100 0.8 1022549
18:00−16sse51094100 0.9 1019615
21:00−16sse51094100 1.6 1018544
26 february, fri
fri2600:00−16sse4995100 0.4 1016444
03:00−16se3995100 0.8 1016408
06:00−16se399599 0.1 1014343
09:00−14se389298 0.3 1014373
12:00−11se4891100 0.2 1012435
15:00−10se51091100 0.3 1009448
18:00−9se61394100 0.9 1004454
21:00−8se61494100 4.1 998504
27 february, sat
sat2700:00−6se41096100 4.5 994320
03:00−1w31199100 6.9 993493
06:000w51197100 1.7 992715
09:00−1wnw2598100 2.4 993332
12:00−2nne2397100 1.1 994259
15:00−6nne4794100 1.5 996383
18:00−9n4894100 0.6 997499
21:00−11n41091100 1.1 1000461
28 february, sun
sun2800:00−14n41093100 0.0 1001404
03:00−16nnw41094100 0.1 1004391
06:00−19nnw4109482 0.0 1006312
09:00−18nnw499273 0.0 1007348
12:00−15nnw489083 0.0 1010476
15:00−14nnw599092 0.0 1011544
18:00−16nnw31093100 0.0 1013415
21:00−18nnw399593 0.0 1016266
1 march, mon
mon100:00−20nnw379733 0.0 1017148
03:00−22nnw389716 0.0 1019153
06:00−23nnw36970 0.0 1021127
09:00−18n36930 0.0 1023245
12:00−13nnw249142 0.0 1023351
15:00−12nw359060 0.0 1023403
18:00−15w229765 0.0 102220
21:00−15sw369782 0.0 1020144